| time (UTC) | temp F | wind direction | speed knots | gust knots | rain 1hr in | rain 24hr in | rain mn in | humidity % | barometer mb |
| 20260905183109 | 67 | 246 | 1.7 | 7.0 | 0.00 | 0.03 | 0.03 | 58 | 1020.4 |
| 20260905181610 | 68 | 292 | 2.6 | 6.1 | 0.00 | 0.03 | 0.03 | 57 | 1020.4 |
| 20260905180109 | 68 | 301 | 2.6 | 5.2 | 0.00 | 0.03 | 0.03 | 56 | 1020.3 |
| 20260905174609 | 69 | 298 | 1.7 | 7.8 | 0.00 | 0.03 | 0.03 | 55 | 1020.1 |
| 20260905173110 | 69 | 318 | 1.7 | 3.5 | 0.00 | 0.03 | 0.03 | 53 | 1019.9 |
| 20260905171609 | 69 | 281 | 1.7 | 3.5 | 0.00 | 0.03 | 0.03 | 53 | 1019.7 |
| 20260905164608 | 71 | 255 | 4.3 | 11.3 | 0.00 | 0.03 | 0.03 | 50 | 1019.6 |
| 20260905163108 | 71 | 261 | 10.4 | 17.4 | 0.00 | 0.03 | 0.03 | 49 | 1019.5 |
| 20260905160108 | 72 | 254 | 7.8 | 13.9 | 0.00 | 0.03 | 0.03 | 47 | 1019.2 |
| 20260905154608 | 71 | 249 | 7.8 | 13.9 | 0.00 | 0.03 | 0.03 | 48 | 1019.3 |
| 20260905151608 | 73 | 304 | 4.3 | 14.8 | 0.00 | 0.03 | 0.03 | 47 | 1019.0 |
| 20260905150108 | 73 | 242 | 5.2 | 11.3 | 0.00 | 0.03 | 0.03 | 46 | 1018.9 |
| 20260905144608 | 74 | 339 | 7.8 | 14.8 | 0.00 | 0.03 | 0.03 | 44 | 1019.0 |
| 20260905143108 | 74 | 259 | 8.7 | 15.6 | 0.00 | 0.03 | 0.03 | 44 | 1019.0 |
| 20260905140113 | 75 | 263 | 7.0 | 11.3 | 0.00 | 0.03 | 0.03 | 44 | 1019.0 |
| 20260905134614 | 75 | 286 | 6.1 | 13.9 | 0.00 | 0.03 | 0.03 | 46 | 1018.7 |
| 20260905131614 | 74 | 224 | 3.5 | 13.0 | 0.00 | 0.03 | 0.03 | 47 | 1019.2 |
| 20260905130112 | 75 | 302 | 7.0 | 11.3 | 0.00 | 0.03 | 0.03 | 47 | 1019.1 |
| 20260905124612 | 74 | 263 | 8.7 | 14.8 | 0.00 | 0.03 | 0.03 | 47 | 1019.3 |
| 20260905121612 | 74 | 316 | 10.4 | 14.8 | 0.00 | 0.03 | 0.03 | 48 | 1019.4 |
| 20260905120112 | 74 | 323 | 5.2 | 13.9 | 0.00 | 0.03 | 0.03 | 49 | 1019.3 |
| 20260905114612 | 74 | 272 | 6.1 | 13.0 | 0.00 | 0.03 | 0.03 | 49 | 1019.2 |
| 20260905113111 | 73 | 207 | 4.3 | 11.3 | 0.00 | 0.03 | 0.03 | 53 | 1019.2 |
| 20260905111611 | 72 | 322 | 5.2 | 10.4 | 0.00 | 0.03 | 0.03 | 54 | 1019.2 |
| 20260905110111 | 72 | 312 | 4.3 | 10.4 | 0.00 | 0.03 | 0.03 | 54 | 1019.3 |
| 20260905104611 | 71 | 242 | 4.3 | 7.0 | 0.00 | 0.03 | 0.03 | 59 | 1019.2 |
| 20260905101611 | 70 | 325 | 3.5 | 8.7 | 0.00 | 0.03 | 0.03 | 62 | 1019.5 |
| 20260905100111 | 69 | 261 | 3.5 | 8.7 | 0.00 | 0.03 | 0.03 | 66 | 1019.7 |
| 20260905094611 | 68 | 232 | 2.6 | 8.7 | 0.00 | 0.03 | 0.03 | 69 | 1019.6 |
| 20260905093111 | 67 | 338 | 2.6 | 9.6 | 0.00 | 0.03 | 0.03 | 71 | 1019.7 |
| 20260905091610 | 66 | 277 | 0.9 | 6.1 | 0.00 | 0.03 | 0.03 | 75 | 1019.8 |
| 20260905090110 | 64 | 229 | 2.6 | 7.0 | 0.00 | 0.03 | 0.03 | 79 | 1019.9 |
| 20260905084612 | 63 | 239 | 3.5 | 7.0 | 0.00 | 0.03 | 0.03 | 82 | 1019.9 |
| 20260905081610 | 60 | 197 | 0.9 | 2.6 | 0.00 | 0.03 | 0.03 | 87 | 1019.8 |
| 20260905064609 | 58 | 198 | 1.7 | 6.1 | 0.02 | 0.03 | 0.03 | 88 | 1017.5 |
| 20260905063109 | 58 | 206 | 1.7 | 6.1 | 0.01 | 0.02 | 0.02 | 85 | 1018.5 |
| 20260905060109 | 59 | 315 | 3.5 | 8.7 | 0.00 | 0.02 | 0.02 | 82 | 1018.8 |
| 20260905054609 | 60 | 290 | 3.5 | 8.7 | 0.00 | 0.02 | 0.02 | 83 | 1018.5 |
| 20260905053109 | 60 | 296 | 2.6 | 6.1 | 0.00 | 0.02 | 0.02 | 83 | 1018.5 |
| 20260905050109 | 60 | 288 | 0.9 | 3.5 | 0.00 | 0.02 | 0.02 | 84 | 1017.5 |
| 20260905044609 | 61 | 288 | 0.9 | 3.5 | 0.02 | 0.02 | 0.02 | 84 | 1017.4 |
| 20260905043109 | 61 | 280 | 0.0 | 7.0 | 0.02 | 0.02 | 0.02 | 84 | 1017.2 |
| 20260905041609 | 62 | 302 | 2.6 | 4.3 | 0.02 | 0.02 | 0.02 | 84 | 1017.1 |
| 20260905040108 | 63 | 317 | 3.5 | 6.1 | 0.02 | 0.02 | 0.02 | 81 | 1016.8 |
| 20260905034608 | 64 | 317 | 4.3 | 15.6 | 0.00 | 0.00 | 0.00 | 74 | 1017.1 |
| 20260905033108 | 65 | 325 | 4.3 | 7.8 | 0.00 | 0.00 | 0.00 | 71 | 1016.2 |
| 20260905031608 | 66 | 327 | 4.3 | 14.8 | 0.00 | 0.00 | 0.00 | 67 | 1015.7 |
| 20260905030113 | 66 | 312 | 4.3 | 12.2 | 0.00 | 0.00 | 0.00 | 65 | 1015.6 |
| 20260905024613 | 66 | 311 | 4.3 | 9.6 | 0.00 | 0.00 | 0.00 | 68 | 1015.3 |
| 20260905021613 | 66 | 344 | 1.7 | 9.6 | 0.00 | 0.00 | 0.00 | 68 | 1015.3 |
| 20260905020113 | 67 | 337 | 5.2 | 13.0 | 0.00 | 0.00 | 0.00 | 68 | 1015.2 |
| 20260905014612 | 67 | 317 | 9.6 | 13.0 | 0.00 | 0.00 | 0.00 | 68 | 1014.6 |
| 20260905011612 | 69 | 331 | 8.7 | 20.0 | 0.00 | 0.00 | 0.00 | 67 | 1014.8 |
| 20260905004613 | 74 | 301 | 0.9 | 3.5 | 0.00 | 0.00 | 0.00 | 57 | 1013.0 |
| 20260905003112 | 74 | 221 | 1.7 | 6.1 | 0.00 | 0.00 | 0.00 | 57 | 1012.5 |
| 20260904234611 | 74 | 250 | 2.6 | 4.3 | 0.00 | 0.00 | 0.00 | 57 | 1012.3 |
| 20260904233111 | 74 | 279 | 2.6 | 8.7 | 0.00 | 0.00 | 0.00 | 58 | 1012.3 |
| 20260904230111 | 72 | 215 | 0.0 | 3.5 | 0.00 | 0.00 | 0.00 | 62 | 1012.2 |
| 20260904224612 | 71 | 236 | 0.0 | 1.7 | 0.00 | 0.00 | 0.00 | 63 | 1012.1 |
| 20260904221611 | 71 | 254 | 1.7 | 4.3 | 0.00 | 0.00 | 0.00 | 64 | 1012.2 |
| 20260904220111 | 71 | 189 | 0.0 | 0.0 | 0.00 | 0.00 | 0.00 | 64 | 1012.0 |
| 20260904214611 | 72 | 189 | 0.0 | 0.0 | 0.00 | 0.00 | 0.00 | 62 | 1012.1 |
| 20260904213110 | 73 | 189 | 0.0 | 1.7 | 0.00 | 0.00 | 0.00 | 60 | 1012.1 |
| 20260904211610 | 73 | 196 | 2.6 | 4.3 | 0.00 | 0.00 | 0.00 | 59 | 1012.1 |
| 20260904210110 | 71 | 255 | 1.7 | 2.6 | 0.00 | 0.00 | 0.00 | 62 | 1012.0 |
| 20260904204610 | 71 | 253 | 0.9 | 1.7 | 0.00 | 0.00 | 0.00 | 63 | 1012.1 |
| 20260904203110 | 71 | 247 | 0.0 | 0.0 | 0.00 | 0.00 | 0.00 | 62 | 1012.1 |
| 20260904201610 | 72 | 247 | 0.0 | 0.0 | 0.00 | 0.00 | 0.00 | 61 | 1012.3 |
| 20260904200110 | 72 | 257 | 0.0 | 0.0 | 0.00 | 0.00 | 0.00 | 60 | 1012.5 |
| 20260904194610 | 73 | 257 | 0.9 | 1.7 | 0.00 | 0.00 | 0.00 | 60 | 1012.5 |
| 20260904193110 | 74 | 230 | 0.0 | 0.0 | 0.00 | 0.00 | 0.00 | 58 | 1012.5 |
| 20260904191611 | 75 | 229 | 0.0 | 0.0 | 0.00 | 0.00 | 0.00 | 56 | 1012.6 |
| 20260904190109 | 75 | 252 | 0.9 | 2.6 | 0.00 | 0.00 | 0.00 | 55 | 1012.6 |
| 20260904184609 | 76 | 207 | 1.7 | 2.6 | 0.00 | 0.00 | 0.00 | 54 | 1012.5 |